When you browse on this site, cookies collect data to enhance your experience and personalize the content and advertising you see.
Visit our Privacy Policy to learn more. By continuing to use the site, you agree to this use of cookies and data.
  • In Germany
  • List of Countries
  • For 7 days
  • Water Temperature
  • Satellite Maps
  • Weather Map
  • Weather Widgets
  • user-avatar
    Login

    Hourly Weather Gorzen

    Today, 24 May, Friday

    Time Temperature Precipitation Wind Pressure Humidity
    00:00 +9°C° 0 mm 2 mps 750 mmHg 93%
    01:00 +9°C° 0 mm 2 mps 750 mmHg 93%
    02:00 +9°C° 0 mm 2 mps 750 mmHg 91%
    03:00 +9°C° 0 mm 2 mps 750 mmHg 90%
    04:00 +10°C° 0 mm 1 mps 750 mmHg 88%
    05:00 +10°C° 0 mm 2 mps 750 mmHg 84%
    06:00 +13°C° 0 mm 2 mps 750 mmHg 80%
    07:00 +14°C° 0 mm 2 mps 750 mmHg 75%
    08:00 +16°C° 0 mm 2 mps 750 mmHg 71%
    09:00 +17°C° 0 mm 2 mps 750 mmHg 68%
    10:00 +18°C° 0 mm 2 mps 750 mmHg 64%
    11:00 +18°C° 0 mm 2 mps 750 mmHg 63%
    12:00 +19°C° 0 mm 2 mps 749 mmHg 62%
    13:00 +19°C° 0 mm 2 mps 749 mmHg 61%
    14:00 +20°C° 0 mm 2 mps 749 mmHg 60%
    15:00 +20°C° 0 mm 2 mps 749 mmHg 59%
    16:00 +21°C° 0 mm 1 mps 748 mmHg 58%
    17:00 +20°C° 0 mm 1 mps 748 mmHg 63%
    18:00 +19°C° 0 mm 1 mps 748 mmHg 67%
    19:00 +18°C° 0 mm 1 mps 748 mmHg 72%
    20:00 +16°C° 0 mm 1 mps 748 mmHg 73%
    21:00 +14°C° 0 mm 1 mps 748 mmHg 75%
    22:00 +13°C° 0 mm 1 mps 748 mmHg 77%
    23:00 +12°C° 0 mm 1 mps 747 mmHg 77%

    Tomorrow, 25 May, Saturday

    Time Temperature Precipitation Wind Pressure Humidity
    00:00 +12°C° 0 mm 2 mps 747 mmHg 77%
    01:00 +10°C° 0 mm 2 mps 747 mmHg 77%
    02:00 +10°C° 0 mm 2 mps 747 mmHg 77%
    03:00 +10°C° 0 mm 2 mps 747 mmHg 77%
    04:00 +10°C° 0 mm 2 mps 747 mmHg 77%
    05:00 +12°C° 0 mm 2 mps 747 mmHg 75%
    06:00 +13°C° 0 mm 3 mps 747 mmHg 74%
    07:00 +14°C° 0 mm 3 mps 747 mmHg 72%
    08:00 +16°C° 0 mm 3 mps 747 mmHg 72%
    09:00 +17°C° 0 mm 3 mps 747 mmHg 72%
    10:00 +18°C° 0 mm 4 mps 747 mmHg 72%
    11:00 +19°C° 0 mm 4 mps 747 mmHg 68%
    12:00 +19°C° 0 mm 5 mps 747 mmHg 64%
    13:00 +20°C° 0 mm 6 mps 747 mmHg 60%
    14:00 +20°C° 0 mm 5 mps 747 mmHg 62%
    15:00 +19°C° 0 mm 5 mps 747 mmHg 64%
    16:00 +17°C° 0 mm 5 mps 747 mmHg 66%
    17:00 +17°C° 0 mm 4 mps 747 mmHg 70%
    18:00 +16°C° 0 mm 3 mps 747 mmHg 74%
    19:00 +14°C° 0 mm 3 mps 748 mmHg 77%
    20:00 +14°C° 0 mm 2 mps 748 mmHg 79%
    21:00 +12°C° 0 mm 2 mps 748 mmHg 81%
    22:00 +10°C° 0 mm 2 mps 748 mmHg 83%
    23:00 +10°C° 0 mm 2 mps 748 mmHg 86%

    Day after tomorrow, 26 May, Sunday

    Time Temperature Precipitation Wind Pressure Humidity
    00:00 +9°C° 0 mm 2 mps 748 mmHg 88%
    01:00 +8°C° 0 mm 2 mps 748 mmHg 91%
    02:00 +8°C° 0 mm 2 mps 748 mmHg 92%
    03:00 +8°C° 0 mm 2 mps 748 mmHg 93%
    04:00 +7°C° 0 mm 3 mps 748 mmHg 95%
    05:00 +9°C° 0 mm 3 mps 748 mmHg 90%
    06:00 +11°C° 0 mm 3 mps 748 mmHg 85%
    07:00 +12°C° 0 mm 3 mps 748 mmHg 81%
    08:00 +14°C° 0 mm 4 mps 748 mmHg 76%
    09:00 +15°C° 0 mm 5 mps 747 mmHg 72%
    10:00 +16°C° 0 mm 5 mps 747 mmHg 68%
    11:00 +17°C° 0.1 mm 6 mps 747 mmHg 66%
    12:00 +17°C° 0.1 mm 6 mps 747 mmHg 65%
    13:00 +18°C° 0.1 mm 7 mps 747 mmHg 64%
    14:00 +19°C° 0.1 mm 6 mps 747 mmHg 64%
    15:00 +17°C° 0.1 mm 6 mps 746 mmHg 65%
    16:00 +17°C° 0.1 mm 6 mps 746 mmHg 65%
    17:00 +16°C° 0 mm 5 mps 746 mmHg 70%
    18:00 +16°C° 0 mm 3 mps 746 mmHg 74%
    19:00 +15°C° 0 mm 2 mps 746 mmHg 79%
    20:00 +14°C° 0 mm 2 mps 746 mmHg 81%
    21:00 +13°C° 0 mm 2 mps 747 mmHg 83%
    22:00 +12°C° 0 mm 2 mps 747 mmHg 84%
    23:00 +13°C° 0 mm 2 mps 747 mmHg 85%

    27 May, Monday

    Time Temperature Precipitation Wind Pressure Humidity
    00:00 +12°C° 0 mm 3 mps 747 mmHg 85%
    01:00 +12°C° 0 mm 3 mps 747 mmHg 85%
    02:00 +11°C° 0 mm 3 mps 746 mmHg 87%
    03:00 +11°C° 0 mm 3 mps 746 mmHg 89%
    04:00 +10°C° 0 mm 3 mps 746 mmHg 92%
    05:00 +12°C° 0 mm 4 mps 746 mmHg 87%
    06:00 +14°C° 0 mm 5 mps 746 mmHg 82%
    07:00 +15°C° 0 mm 5 mps 746 mmHg 78%
    08:00 +17°C° 0 mm 6 mps 746 mmHg 73%
    09:00 +20°C° 0 mm 6 mps 746 mmHg 69%
    10:00 +21°C° 0 mm 7 mps 745 mmHg 65%
    11:00 +21°C° 0.5 mm 7 mps 745 mmHg 65%
    12:00 +22°C° 0.5 mm 7 mps 745 mmHg 66%
    13:00 +22°C° 0.5 mm 7 mps 745 mmHg 66%
    14:00 +22°C° 1 mm 6 mps 745 mmHg 70%
    15:00 +21°C° 1 mm 6 mps 745 mmHg 74%
    16:00 +21°C° 1 mm 5 mps 745 mmHg 78%
    17:00 +20°C° 0.4 mm 4 mps 745 mmHg 81%
    18:00 +19°C° 0.4 mm 3 mps 745 mmHg 83%
    19:00 +18°C° 0.4 mm 2 mps 745 mmHg 85%
    20:00 +17°C° 0 mm 2 mps 746 mmHg 86%
    21:00 +16°C° 0 mm 2 mps 746 mmHg 88%
    22:00 +14°C° 0 mm 2 mps 746 mmHg 89%
    23:00 +14°C° 0 mm 2 mps 746 mmHg 91%

    28 May, Tuesday

    Time Temperature Precipitation Wind Pressure Humidity
    00:00 +13°C° 0 mm 2 mps 746 mmHg 93%
    01:00 +13°C° 0 mm 2 mps 746 mmHg 95%
    02:00 +12°C° 0 mm 2 mps 746 mmHg 95%
    03:00 +11°C° 0 mm 3 mps 746 mmHg 95%
    04:00 +11°C° 0 mm 3 mps 746 mmHg 95%
    05:00 +12°C° 0 mm 3 mps 746 mmHg 92%
    06:00 +13°C° 0 mm 4 mps 746 mmHg 88%
    07:00 +14°C° 0 mm 4 mps 746 mmHg 84%
    08:00 +14°C° 0.1 mm 4 mps 746 mmHg 83%
    09:00 +14°C° 0.1 mm 5 mps 745 mmHg 83%
    10:00 +15°C° 0.1 mm 5 mps 745 mmHg 83%
    11:00 +14°C° 1.2 mm 5 mps 745 mmHg 86%
    12:00 +14°C° 1.2 mm 5 mps 745 mmHg 89%
    13:00 +13°C° 1.2 mm 5 mps 744 mmHg 92%
    14:00 +13°C° 0.9 mm 5 mps 744 mmHg 92%
    15:00 +13°C° 0.9 mm 5 mps 744 mmHg 93%
    16:00 +13°C° 0.9 mm 5 mps 744 mmHg 93%
    17:00 +13°C° 0.2 mm 5 mps 744 mmHg 94%
    18:00 +12°C° 0.2 mm 5 mps 744 mmHg 94%
    19:00 +12°C° 0.2 mm 5 mps 744 mmHg 94%
    20:00 +12°C° 0.3 mm 5 mps 744 mmHg 94%
    21:00 +12°C° 0.3 mm 5 mps 744 mmHg 94%
    22:00 +12°C° 0.3 mm 5 mps 744 mmHg 95%
    23:00 +12°C° 0.3 mm 5 mps 744 mmHg 95%

    29 May, Wednesday

    Time Temperature Precipitation Wind Pressure Humidity
    00:00 +12°C° 0.3 mm 5 mps 744 mmHg 94%
    01:00 +12°C° 0.3 mm 5 mps 744 mmHg 94%
    02:00 +10°C° 0.3 mm 5 mps 744 mmHg 94%
    03:00 +10°C° 0.3 mm 5 mps 744 mmHg 94%
    04:00 +11°C° 0.3 mm 4 mps 744 mmHg 94%
    05:00 +11°C° 0.2 mm 4 mps 745 mmHg 94%
    06:00 +12°C° 0.2 mm 5 mps 745 mmHg 93%
    07:00 +12°C° 0.2 mm 5 mps 745 mmHg 92%
    08:00 +13°C° 0.1 mm 5 mps 745 mmHg 90%
    09:00 +14°C° 0.1 mm 5 mps 746 mmHg 88%
    10:00 +15°C° 0.1 mm 5 mps 746 mmHg 85%
    11:00 +15°C° 0 mm 4 mps 746 mmHg 83%
    12:00 +17°C° 0 mm 4 mps 746 mmHg 82%
    13:00 +17°C° 0 mm 4 mps 746 mmHg 80%
    14:00 +17°C° 0.1 mm 3 mps 747 mmHg 81%
    15:00 +17°C° 0.1 mm 3 mps 747 mmHg 82%
    16:00 +17°C° 0.1 mm 2 mps 747 mmHg 83%
    17:00 +16°C° 0.4 mm 3 mps 748 mmHg 85%
    18:00 +14°C° 0.4 mm 4 mps 748 mmHg 86%
    19:00 +13°C° 0.4 mm 4 mps 748 mmHg 88%
    20:00 +12°C° 0.3 mm 4 mps 749 mmHg 88%
    21:00 +12°C° 0.3 mm 4 mps 749 mmHg 89%
    22:00 +11°C° 0.3 mm 4 mps 750 mmHg 89%
    23:00 +11°C° 0.4 mm 4 mps 750 mmHg 90%
    Show more